Regional Weather Roundup
Issued by NWS

Home | Current Version | Previous Version | Graphics & Text | Print | Product List | Glossary On
Versions: 1 2 3 4 5 6 7 8 9 10 11 12 13 14 15 16 17 18 19 20 21 22 23 24 25 26 27 28 29 30 31 32 33 34 35 36 37 38 39 40 41 42 43 44 45 46 47 48 49 50
000
ASUS43 KMPX 270310
RWRMN
WEATHER ROUNDUP FOR MINNESOTA
NATIONAL WEATHER SERVICE TWIN CITIES/CHANHASSEN MN
900 PM CST THU FEB 26 2015


NOTE: "FAIR" INDICATES FEW OR NO CLOUDS BELOW 12,000 FEET WITH NO
SIGNIFICANT WEATHER AND/OR OBSTRUCTIONS TO VISIBILITY. N/A MEANS
CURRENT SKY AND/OR WEATHER CONDITIONS ARE NOT AVAILABLE.

MNZ060>063-068>070-270400-
   Twin Cities Metro

CITY           SKY/WX    TMP DP  RH WIND       PRES   REMARKS
TWIN CITIES    CLEAR      4  -8  57 NW9       30.48R WCI -10
ST PAUL        CLEAR      5  -7  57 NW12      30.50R WCI -11
CRYSTAL        CLEAR      5  -8  55 W7        30.47S WCI  -7
BLAINE         CLEAR      3  -6  66 W6        30.46S WCI  -8
EDEN PRAIRIE   CLEAR      1  -8  66 W5        30.47S WCI  -9
SOUTH ST PAUL  CLEAR      6  -7  54 NW6       30.48S WCI  -5
LAKE ELMO      FAIR       3  -8  60 W5        30.47S WCI  -6
$$
MNZ001>005-007-008-013>017-022>024-027-028-270400-
   Northwest Minnesota

CITY           SKY/WX    TMP DP  RH WIND       PRES   REMARKS
BEMIDJI        CLEAR     -6 -12  78 W6        30.41S WCI -19
HALLOCK        CLEAR     -6 -11  77 W7        30.48F WCI -20
ROSEAU         CLEAR      0  -8  71 W9        30.43F WCI -16
WARROAD        CLEAR     -2  -9  71 W8        30.42S WCI -17
THIEF RVR FALL CLEAR     -2  -9  71 W3        30.45F
CROOKSTON      CLEAR     -4  -9  77 NW6       30.51S WCI -16
FOSSTON        CLEAR    -13 -17  84 CALM      30.45F
DETROIT LAKES  CLEAR      0  -6  78 W5        30.46S WCI -10
MOORHEAD       CLEAR      3  -4  72 NW10      30.52S WCI -12
PARK RAPIDS    CLEAR    -10 -16  74 W7        30.42S WCI -25
MAHNOMEN       FAIR      -4  -8  81 W5        30.45F WCI -14
$$
MNZ006-009>011-018-025>026-270400-
   North Central Minnesota

CITY           SKY/WX    TMP DP  RH WIND       PRES   REMARKS
BAUDETTE       CLEAR     -3 -11  68 W7        30.38S WCI -16
FLAG ISLAND    CLEAR      0  -9  65 W6        30.40S WCI -12
INTL FALLS     CLEAR     -3 -14  59 W6        30.37S WCI -15
WASKISH        CLEAR     -6  -9  84 SW9       30.41F WCI -22
BIG FORK       FAIR      -2 -11  65 W3        30.39S
LONGVILLE      CLEAR     -4 -13  65 NW5       30.42S WCI -15
GRAND RAPIDS   CLEAR     -2 -11  65 W8        30.37S WCI -17
CRANE LAKE     CLEAR    -15 -20  76 CALM      30.39F
ORR            CLEAR     -4 -17  54 CALM      30.33F
COOK           CLEAR     -8 -17  65 CALM      30.36S
WALKER         FAIR      -6 -13  69 W3        30.42F
$$
MNZ012-019>021-037-270400-
   Northeast Minnesota

CITY           SKY/WX    TMP DP  RH WIND       PRES   REMARKS
DULUTH         CLEAR      1 -13  51 NW9       30.34R WCI -14
ELY            CLEAR     -4 -17  54 W5        30.33S WCI -15
HIBBING        CLEAR     -1 -14  53 W7        30.37R WCI -14
EVELETH        CLEAR      0 -13  55 W5        30.36S WCI -10
DULUTH HARBOR  CLEAR      5  -9  51 W9        30.44R WCI  -9
TWO HARBORS    CLEAR      5  -9  51 NW5       30.34S WCI  -4
SILVER BAY     CLEAR      3 -13  47 CALM      30.32S
GRAND MARAIS     N/A      3 -12  49 W6        30.36S WCI  -8
G MARAIS ARPRT PTCLDY    -6 -17  59 NW9       30.22S WCI -22
$$
MNZ029>031-032-039>041-046>048-054>057-064-270400-
   West Central Minnesota

CITY           SKY/WX    TMP DP  RH WIND       PRES   REMARKS
FERGUS FALLS   CLEAR     -2  -9  71 W6        30.54S WCI -14
WHEATON        CLEAR     -6 -11  77 W6        30.55F WCI -18
MORRIS         FAIR      -4  -9  77 NW8       30.50S WCI -19
ALEXANDRIA     CLEAR     -4 -10  75 NW7       30.45F WCI -18
ELBOW LAKE     FAIR      -4  -8  82 W5        30.49S WCI -15
WADENA         CLEAR     -6  -9  84 W5        30.45S WCI -17
GLENWOOD       CLEAR     -2  -8  78 NW7       30.47S WCI -16
APPLETON       CLEAR     -6 -11  77 W7        30.53F WCI -20
BENSON         CLEAR     -4  -9  77 NW7       30.50F WCI -18
ORTONVILLE     CLEAR     -4  -9  77 W7        30.53S WCI -18
MADISON        CLEAR     -6 -11  77 W8        30.54S WCI -21
WILLMAR        FAIR       0  -8  71 NW7       30.50S WCI -13
$$
MNZ033>034-036-042>043-049>051-058-059-270400-
   Central Minnesota

CITY           SKY/WX    TMP DP  RH WIND       PRES   REMARKS
ST CLOUD       CLEAR      1  -8  66 NW12      30.46R WCI -16
SAUK CENTRE    FAIR      -1  -8  71 NW7       30.47S WCI -14
PAYNESVILLE    CLEAR     -2  -9  72 W8        30.48S WCI -17
AITKIN         CLEAR     -4 -15  59 NW3       30.41S
PINE RIVER     CLEAR     -2 -11  65 NW5       30.45S WCI -12
BRAINERD       CLEAR      0 -12  57 NW7       30.44R WCI -13
STAPLES        CLEAR     -6 -13  71 W6        30.45R WCI -18
LONG PRAIRIE   FAIR      -2  -9  71 W8        30.46R WCI -17
LITTLE FALLS   CLEAR      1  -9  60 NW6       30.47S WCI -10
LITCHFIELD     CLEAR      0  -8  71 CALM      30.49R
BUFFALO        CLEAR      3  -8  60 W6        30.48S WCI  -8
MAPLE LAKE     CLEAR      3  -5  68 W6        30.48S WCI  -8
$$
MNZ037-044-045-052-053-270400-
   East Central Minnesota

CITY           SKY/WX    TMP DP  RH WIND       PRES   REMARKS
PRINCETON      CLEAR      0  -9  65 W5        30.45S WCI -10
MORA           CLEAR     -4 -15  59 CALM      30.45S
CAMBRIDGE      CLEAR     -2 -11  65 CALM      30.44S
RUSH CITY      PTCLDY    -1 -11  61 CALM      30.46R
MOOSE LAKE     PTCLDY     1 -13  51 CALM      30.40S
HINCKLEY       FAIR       3  -9  55 NW5       30.43S WCI  -6
CLOQUET        CLEAR      0 -15  50 W8        30.37S WCI -15
MCGREGOR       CLEAR      1  -9  60 NW6       30.42R WCI -10
$$
MNZ071>073-080-081-089-090-097-098-270400-
   Southwest Minnesota

CITY           SKY/WX    TMP DP  RH WIND       PRES   REMARKS
MONTEVIDEO     CLEAR     -2  -8  78 N7        30.54S WCI -16
GRANITE FALLS  CLEAR     -4 -10  77 W10       30.54S WCI -22
CANBY          CLEAR     -5 -11  76 W8        30.54F WCI -21
MARSHALL       CLEAR     -8 -13  77 W10       30.52F WCI -26
REDWOOD FALLS  CLEAR     -4 -10  75 W9        30.52R WCI -20
OLIVIA         CLEAR     -2  -6  84 NW7       30.51R WCI -16
PIPESTONE      CLEAR     -4  -9  77 N9        30.46F WCI -20
WINDOM         CLEAR     -9 -13  84 W6        30.48F WCI -23
WORTHINGTON    CLEAR     25 -18  14 NW5       30.49S WCI  19
JACKSON        CLEAR     -4  -9  77 NW9       30.48S WCI -20
TRACY          CLEAR     -3  -8  77 NW8       30.50S WCI -18
SLAYTON        CLEAR     -8 -14  76 CALM      30.48S
$$
MNZ065>067-074>077-082>085-091>093-270400-
   South Central Minnesota

CITY           SKY/WX    TMP DP  RH WIND       PRES   REMARKS
MANKATO        CLEAR     -2 -11  65 W9        30.49R WCI -18
NEW ULM        CLEAR     -6 -11  77 W9        30.51S WCI -22
ST JAMES       CLEAR     -2  -9  71 W10       30.52S WCI -19
FAIRMONT       CLEAR     -2  -9  71 NW10      30.48R WCI -19
GLENCOE        CLEAR     -1  -7  75 W7        30.49R WCI -14
FARIBAULT      FAIR      -2  -9  71 W7        30.47S WCI -16
OWATONNA       CLEAR     -6 -11  77 W8        30.46S WCI -21
WASECA         CLEAR     -4  -9  77 W8        30.49S WCI -19
ALBERT LEA     CLEAR     -4  -9  77 W7        30.46S WCI -18
$$
MNZ078>079-086>088-094>096-270400-
   Southeast Minnesota

CITY           SKY/WX    TMP DP  RH WIND       PRES   REMARKS
ROCHESTER      CLEAR     -4 -11  72 W13       30.43R WCI -23
RED WING       CLEAR      0 -11  60 NW3       30.47S
STANTON        CLEAR      0  -7  70 W8        30.46S WCI -14
DODGE CENTER   PTCLDY    -2  -8  78 W12       30.43R WCI -20
WINONA         CLEAR      1  -8  66 CALM      30.48S
AUSTIN         CLEAR     -2  -9  71 NW9       30.45R WCI -18
PRESTON        CLEAR     -3 -11  70 NW13      30.43R WCI -22
$$
ABBREVIATIONS USED IN REMARKS
   TC - TEMPERATURES IN CELSIUS
  WCI - WIND CHILL INDEX
   HX - HEAT INDEX
  VSB - VISIBILITY
$$



USA.gov is the U.S. government's official web portal to all federal, state and local government web resources and services.